STARLINK-1342, 45558

Orbit data source: Space-Track

STARLINK-1342, 45558 is a payload satellite owned by SpaceX/Seattle (US) in LEO that was launched on Wed, 22 Apr 2020 UTC via an FALCON 9 launch vehicle from the Air Force Eastern Test Range (AFETR). Payloads include a variety of satellites, spacecraft, and rockets equipped with specific instruments for various scientific and technological missions. These include communications satellites like Starlink; space stations such as the ISS; scientific satellites like the Hubble; Earth observation satellites from companies like Planet Labs, Umbra, and HawkEye 360; GPS; miniature CubeSats for education and research; and military/defense satellites.

Loading next visibility...
STARLINK-1342 details
Identifier
45558, 2020-025AD
Orbit
LEO
Last TLE update23 hours ago
Origin
Flag of USSpaceX/Seattle (US)
ManufacturerSpaceX/Seattle
MissionOperational Commercial Communications
Bus & MotorSTARLINK, Unknown motor
Mass260 kg wet, ~248 kg dry
Launch date (UTC)
2020-04-22 (5 years ago)
Launch vehicle
FALCON 9
Launch site
Air Force Eastern Test Range (AFETR)
Object type
Payload
Rocket body
Debris
Shape & HBRBox + 1 Pan, 8.86 m
Radar Cross Section13.562 m², Large (>1 m²)

Expand to show TLE details & history

TLE from 23 hours ago
0 STARLINK-1342
1 45558U 20025AD  25023.66079152  .00022020  00000-0  14935-2 0  9994
2 45558  53.0533 127.3097 0001810  80.4107 279.7086 15.06375966263566
Epoch: 2025-01-23T15:51Z
Definitive object data (Epoch: 2025-01-23T15:51:32.387Z)
Latitude-0.00005°
Longitude126.1896°
Altitude547.953 km
Speed7.589 km/s
True Right ascension08h 29m 14s
True Declination0° 00' 00"
Sunlit
Object was in full shadow at TLE epoch
Visualization TLE readout
Latitude52.07204°
Longitude-131.77361°
Altitude552.251 km
Speed7.593 km/s
Apparent Right ascension06h 44m 45s
Apparent Declination55° 50' 01"
Sunlit
Object is in daylight
Visualization observer readout
Local Sidereal Time15:51:47
Azimuth336.786° NNW
Elevation12.542°
Doppler factor1
Orbital elements
Apogee altitude548.81 km
Perigee altitude546.303 km
Semi-major axis6,925.693 km
Eccentricity0.000181
Inclination53.0533°
RAAN127.3097°
Arg. of periapsis80.4107°
True anomaly279.68816°
Mean anomaly279.7086°
Eccentric anomaly279.69838°
Mean motion3.76572 °/min
BSTAR0.0014935
Orbital period95.6 mins
Loading maneuver chart data...
Loading historical data...
Loading historical data...
Loading historical data...
Loading historical data...
Loading historical data...
Loading historical data...
Loading historical data...

STARLINK-1342 Visibility forecast

Observer location: undefined°, undefined

Span
Click to sort rows by Start time (UTC) header in descending order
Start Az.
Max El. time (UTC)
Max El. Az.
Max El.
End time (UTC)
End Az.
5 mins2025-01-24 14:35:35.029Z336.638° NNW2025-01-24 14:38:35.029Z29.883° NE19.461°2025-01-24 14:40:35.029Z63.87° ENE
6 mins2025-01-24 16:15:35.029Z310.356° NW2025-01-24 16:18:35.029Z126.785° SE43.54°2025-01-24 16:21:35.029Z130.364° SE
6 mins2025-01-25 09:27:35.029Z242.513° WSW2025-01-25 09:30:35.029Z351.687° N42.08°2025-01-25 09:33:35.029Z44.168° NE
4 mins2025-01-25 11:08:35.029Z309.116° NW2025-01-25 11:10:35.029Z344.611° N17.498°2025-01-25 11:12:35.029Z18.264° NNE
4 mins2025-01-25 14:30:35.029Z353.723° N2025-01-25 14:31:35.029Z14.883° NNE22.125°2025-01-25 14:34:35.029Z72.89° E
|